Location: Mascot Post Office (historical)
(40.2645°N, 99.5462°W)
Time: 06:51:24
(UTC+00:00)

Iridium 4 Rocket - Pass Details

Date: 14 July 2020
Orbit: 583 x 906 km, 86.9° (Epoch: 04 August)

Event Time Altitude Azimuth Distance (km) Brightness Sun altitude
Exits shadow 07:03:21 57° 95° (E) 1,003 4.0 -28.0°
Maximum altitude 07:03:30 57° 88° (E) 999 4.0 -28.0°
Drops below altitude 10° 07:08:48 10° 11° (N) 2,394 7.0 -27.9°
Sets 07:11:07 0° 7° (N) 3,280 8.1 -27.8°
